Content
SEND FEEDBACK

Daily
Averages
Monthly
Summary
United States of America

BLUFF CITY, TENNESSEE


Home > North America > United States > Tennessee
Elevation: 148 feet     Latitude: 36 28N     Longitude: 082 16W

WEATHER
 
SELECT A DAY
Number of Records: 138,786;   Date Range: 4/1/09 - 12/19/14
 
SHARE

PRINT THIS DATA

[ ← Previous Day ]
WEATHER ALMANAC - JANUARY 31, 2013
[ Next Day → ]
[ °C ]   °F
Weather ElementAverageHighLow
Temperature32.2 °F37.4 °F (1:15 am)28.4 °F (6:15 am)
Dewpoint21.5 °F35.6 °F (1:15 am)17.6 °F (8:55 am)
Humidity65.8 %93 % (1:15 am)48 % (4:35 pm)
Barometer29.88 in29.98 in (6:55 pm)29.61 in (1:15 am)
Wind Speed11.9 mph20.7 mph (12:15 pm)
Wind Gust36.8 mph (1:15 am)
Weather ElementAverage
Visibility9.5 mi
Wind DirectionWSW (261.8 °)

Weather ElementTotal
Precipitation---
Heating Degree Days32.1 (Base 65)
Averaged from 68 records on January 31, 2013
WEATHER CONDITIONS BREAKOUT
WIND DIRECTION BREAKOUT
WEATHER BY HOUR - JANUARY 31, 2013
[ °C ]   °F
Local TimeTemperatureDewpointHumidityBarometerVisibilityWind DirectionWind SpeedGust SpeedPrecipitationEventsConditions
1:15 AM37.4 °F35.6 °F93 %29.61 in3.0 miWest (260°)19.6 mph36.8 mphRainRain
1:35 AM35.6 °F33.8 °F93 %29.62 in3.0 miWSW (250°)12.7 mphRainRain
1:55 AM35.6 °F33.8 °F93 %29.62 in9.0 miWSW (250°)13.8 mphLight Drizzle
2:15 AM35.6 °F33.8 °F93 %29.64 in10.0 miWSW (250°)17.3 mphRainLight Rain
2:35 AM35.6 °F32.0 °F87 %29.66 in10.0 miWSW (250°)12.7 mphLight Drizzle
2:55 AM33.8 °F30.2 °F87 %29.68 in4.0 miWest (280°)17.3 mphRainLight Rain
3:15 AM33.8 °F30.2 °F87 %29.71 in10.0 miWNW (290°)10.4 mphRainLight Rain
3:35 AM32.0 °F30.2 °F93 %29.72 in10.0 miWest (280°)15.0 mphRainLight Rain
3:55 AM32.0 °F28.4 °F87 %29.73 in10.0 miWest (280°)13.8 mph21.9 mphOvercast
4:15 AM32.0 °F24.8 °F75 %29.74 in10.0 miWest (280°)15.0 mph29.9 mphMostly Cloudy
4:35 AM30.2 °F24.8 °F80 %29.76 in10.0 miWest (270°)19.6 mph26.5 mphRainLight Rain
4:55 AM30.2 °F23.0 °F75 %29.77 in10.0 miWest (270°)15.0 mphRainLight Rain
5:15 AM30.2 °F21.2 °F69 %29.78 in10.0 miWest (270°)15.0 mphOvercast
5:35 AM30.2 °F21.2 °F69 %29.79 in10.0 miWest (270°)12.7 mphOvercast
5:55 AM30.2 °F21.2 °F69 %29.80 in10.0 miWest (280°)18.4 mphRainLight Rain
6:15 AM28.4 °F21.2 °F74 %29.80 in10.0 miWest (280°)11.5 mphRainLight Rain
6:35 AM28.4 °F21.2 °F74 %29.81 in10.0 miWest (270°)10.4 mphRainLight Rain
6:55 AM28.4 °F21.2 °F74 %29.82 in10.0 miWest (260°)12.7 mphOvercast
7:15 AM30.2 °F21.2 °F69 %29.82 in10.0 miWest (260°)8.1 mphRainLight Rain
7:35 AM28.4 °F21.2 °F74 %29.84 in10.0 miWSW (250°)15.0 mphOvercast
7:55 AM28.4 °F19.4 °F69 %29.86 in10.0 miWest (280°)12.7 mphOvercast
8:15 AM28.4 °F19.4 °F69 %29.86 in10.0 miWest (270°)11.5 mphRainLight Rain
8:35 AM28.4 °F19.4 °F69 %29.88 in10.0 miWest (260°)10.4 mphOvercast
8:55 AM28.4 °F17.6 °F64 %29.90 in10.0 miWSW (250°)10.4 mph27.6 mphOvercast
9:15 AM30.2 °F17.6 °F60 %29.90 in10.0 miWest (270°)11.5 mphOvercast
9:35 AM30.2 °F17.6 °F60 %29.91 in10.0 miWest (270°)10.4 mphOvercast
9:55 AM30.2 °F19.4 °F64 %29.92 in10.0 miWest (260°)12.7 mphOvercast
10:15 AM28.4 °F21.2 °F74 %29.93 in5.0 miWest (260°)12.7 mphSnowLight Snow
10:35 AM30.2 °F23.0 °F75 %29.94 in5.0 miWSW (250°)10.4 mphSnowLight Snow
10:55 AM30.2 °F21.2 °F69 %29.94 in10.0 miWest (260°)10.4 mphSnowLight Snow
11:15 AM30.2 °F19.4 °F64 %29.94 in10.0 miWSW (250°)9.2 mphOvercast
11:35 AM30.2 °F17.6 °F60 %29.93 in10.0 miWSW (250°)15.0 mphOvercast
11:55 AM33.8 °F17.6 °F52 %29.92 in10.0 miWest (270°)16.1 mph27.6 mphOvercast
12:15 PM33.8 °F19.4 °F56 %29.93 in10.0 miWSW (240°)20.7 mphOvercast
12:35 PM32.0 °F21.2 °F64 %29.93 in10.0 miWSW (240°)16.1 mphOvercast
12:55 PM33.8 °F21.2 °F60 %29.93 in10.0 miWest (260°)19.6 mphOvercast
1:15 PM33.8 °F23.0 °F65 %29.94 in10.0 miWSW (250°)18.4 mphMostly Cloudy
1:35 PM33.8 °F21.2 °F60 %29.95 in10.0 miWest (260°)13.8 mphMostly Cloudy
1:55 PM30.2 °F21.2 °F69 %29.95 in7.0 miWest (280°)8.1 mphSnowLight Snow
2:15 PM33.8 °F21.2 °F60 %29.95 in10.0 miWSW (240°)17.3 mphRainLight Rain
2:35 PM33.8 °F21.2 °F60 %29.96 in9.0 miWest (260°)13.8 mphSnowLight Snow
2:55 PM33.8 °F19.4 °F56 %29.97 in10.0 miWest (260°)9.2 mphSnowLight Snow
3:15 PM33.8 °F19.4 °F56 %29.97 in10.0 miWest (280°)13.8 mphRainLight Rain
3:35 PM33.8 °F17.6 °F52 %29.97 in10.0 miWest (260°)11.5 mphOvercast
3:55 PM33.8 °F19.4 °F56 %29.97 in10.0 miWSW (250°)16.1 mphOvercast
4:15 PM35.6 °F19.4 °F52 %29.96 in10.0 miWSW (250°)11.5 mph24.2 mphOvercast
4:35 PM35.6 °F17.6 °F48 %29.96 in10.0 miWSW (240°)13.8 mphOvercast
4:55 PM35.6 °F17.6 °F48 %29.96 in10.0 miWSW (250°)15.0 mphMostly Cloudy
5:15 PM35.6 °F17.6 °F48 %29.96 in10.0 miWSW (250°)12.7 mphMostly Cloudy
5:35 PM33.8 °F17.6 °F52 %29.96 in10.0 miWest (260°)10.4 mphMostly Cloudy
5:55 PM33.8 °F17.6 °F52 %29.96 in10.0 miWest (260°)10.4 mphMostly Cloudy
6:15 PM33.8 °F17.6 °F52 %29.97 in10.0 miWest (260°)6.9 mphMostly Cloudy
6:35 PM33.8 °F17.6 °F52 %29.97 in10.0 miWest (260°)8.1 mphOvercast
6:55 PM33.8 °F19.4 °F56 %29.98 in10.0 miWSW (250°)9.2 mphOvercast
7:15 PM33.8 °F19.4 °F56 %29.97 in10.0 miWSW (250°)6.9 mphOvercast
7:35 PM32.0 °F19.4 °F60 %29.96 in10.0 miWest (270°)5.8 mphMostly Cloudy
8:15 PM32.0 °F19.4 °F60 %29.98 in10.0 miWest (280°)4.6 mphClear
8:35 PM32.0 °F19.4 °F60 %29.97 in10.0 miWest (270°)6.9 mphPartly Cloudy
8:55 PM30.2 °F19.4 °F64 %29.97 in10.0 miWNW (290°)5.8 mphClear
9:15 PM30.2 °F19.4 °F64 %29.97 in10.0 miWNW (290°)6.9 mphClear
9:35 PM30.2 °F19.4 °F64 %29.97 in10.0 miWNW (300°)6.9 mphClear
9:55 PM30.2 °F19.4 °F64 %29.96 in10.0 miWNW (290°)6.9 mphClear
10:15 PM30.2 °F19.4 °F64 %29.96 in10.0 miWNW (290°)6.9 mphScattered Clouds
10:35 PM33.8 °F19.4 °F56 %29.95 in10.0 miWNW (290°)6.9 mphMostly Cloudy
10:55 PM33.8 °F19.4 °F56 %29.94 in10.0 miWNW (290°)5.8 mphMostly Cloudy
11:15 PM33.8 °F19.4 °F56 %29.94 in10.0 miWNW (290°)5.8 mphMostly Cloudy
11:35 PM33.8 °F19.4 °F56 %29.93 in10.0 miVariable6.9 mphMostly Cloudy
11:55 PM33.8 °F19.4 °F56 %29.93 in10.0 miWNW (290°)8.1 mphMostly Cloudy
Hourly data recorded from K0A9, located miles away from Bluff City, Tennessee







STORIES FROM OUR PARTNERS